Location: Montreal
(45.5087°N, 73.5540°W)
Time: 21:08:03
(UTC-04:00)

N. Korean satellite - Visible Passes

Search period start: 21 October 2017 00:00
Search period end: 31 October 2017 00:00
Orbit: 459 x 517 km, 97.2° (Epoch: 21 October)

Date Brightness Start Highest point End Pass type
(mag) Time Alt. Az. Time Alt. Az. Time Alt. Az.
21 Oct 9.6 19:50:41 10° SW 19:53:06 17° W 19:55:32 10° NW visible
22 Oct 8.4 19:26:27 10° SSW 19:29:37 32° W 19:32:48 10° NNW visible
23 Oct 9.9 06:52:01 10° NE 06:54:15 16° E 06:56:28 10° SE visible
23 Oct 6.9 19:02:45 10° S 19:06:14 66° W 19:09:41 10° NNW visible
24 Oct 6.5 18:39:27 10° SSE 18:42:53 60° ENE 18:46:19 10° N visible
25 Oct 9.6 19:50:51 10° SW 19:53:13 17° W 19:55:35 10° NW visible
26 Oct 8.4 19:26:35 10° SSW 19:29:44 32° W 19:32:52 10° NNW visible
27 Oct 9.9 06:52:02 10° NE 06:54:20 16° E 06:56:38 10° SE visible
27 Oct 6.9 19:02:51 10° S 19:06:17 65° WSW 19:09:45 10° NNW visible
28 Oct 6.4 18:39:32 10° SSE 18:42:56 60° ENE 18:46:22 10° N visible
29 Oct 7.3 18:16:35 10° SE 18:19:39 30° ENE 18:22:44 10° N visible
29 Oct 9.6 19:50:57 10° SW 19:53:16 17° W 19:55:36 10° NW visible
30 Oct 8.4 19:26:38 10° SSW 19:29:45 31° W 19:32:53 10° NNW visible
